Regional Weather Roundup
Issued by NWS Mobile, AL

Home | Current Version | Previous Version | Text Only | Print | Product List | Glossary On
Versions: 1 2 3 4 5 6 7 8 9 10 11 12 13 14 15 16 17 18 19 20 21 22 23 24 25 26 27 28
000
ASUS44 KMOB 280612
RWRMOB
REGIONAL WEATHER ROUNDUP
NATIONAL WEATHER SERVICE MOBILE AL
100 AM CDT SAT MAY 28 2016

NOTE: "FAIR" INDICATES FEW OR NO CLOUDS BELOW 12,000 FEET WITH NO
      SIGNIFICANT WEATHER AND/OR OBSTRUCTIONS TO VISIBILITY.

  * THESE STATIONS ARE PART OF THE UNIVERSITY OF SOUTH ALABAMA
    MESONET AND ARE NOT UNDER NWS OR FAA QUALITY CONTROL.

ALZ061>064-280700-
COASTAL ALABAMA

CITY           SKY/WX    TMP DP  RH WIND       PRES   REMARKS
MOBILE REG APT CLOUDY    72  70  93 CALM      30.02S
6HR MIN TEMP:  72; 6HR MAX TEMP:  79;

BROOKLEY FIELD CLOUDY    75  66  73 CALM      30.02S
6HR MIN TEMP:  75; 6HR MAX TEMP:  79;

USA CAMPUS*    NOT AVBL
DOG RIVER*     NOT AVBL


CITY           SKY/WX    TMP DP  RH WIND       PRES   REMARKS
MOUNT VERNON*  NOT AVBL
SARALAND*      NOT AVBL
BAY MINETTE*   NOT AVBL
LOXLEY*        NOT AVBL
ROBERTSDALE*   NOT AVBL
FAIRHOPE*      NOT AVBL
ELBERTA*       NOT AVBL
FOLEY*         NOT AVBL
GRAND BAY*     NOT AVBL
DAUPHIN ISLND* NOT AVBL
BON SCOUR NWR* NOT AVBL
GULF SHORES    CLOUDY    74  66  75 S3        29.99S

$$

ALZ051>060-280700-
INTERIOR SOUTHWEST AND SOUTH CENTRAL ALABAMA

CITY           SKY/WX    TMP DP  RH WIND       PRES   REMARKS
GREENVILLE     CLOUDY    70  65  84 CALM      30.02F
6HR MIN TEMP:  70; 6HR MAX TEMP:  82;

EVERGREEN      CLOUDY    69  67  93 CALM      30.02F
6HR MIN TEMP:  69; 6HR MAX TEMP:  82;

CASTLEBERRY*   NOT AVBL
ATMORE*        NOT AVBL
DIXIE*         NOT AVBL
ANDALUSIA/OPP  CLOUDY    74  68  81 CALM      30.02S
6HR MIN TEMP:  74; 6HR MAX TEMP:  83;

ANDALUSIA*     NOT AVBL
FLORALA APT    CLOUDY    71  66  84 CALM      30.03F
6HR MIN TEMP:  70; 6HR MAX TEMP:  79;

FLORALA*       NOT AVBL

$$

FLZ001>006-280700-
WESTERN FLORIDA PANHANDLE

CITY           SKY/WX    TMP DP  RH WIND       PRES   REMARKS
PENSACOLA      CLOUDY    74  65  73 CALM      29.99F
6HR MIN TEMP:  74; 6HR MAX TEMP:  78;

NAS PENSACOLA  NOT AVBL
MILTON         CLOUDY    69  67  93 NE3       30.00F
6HR MIN TEMP:  68; 6HR MAX TEMP:  82;

WHTNG S FIELD    N/A    N/A N/A N/A MISG      30.00F


CITY           SKY/WX    TMP DP  RH WIND       PRES   REMARKS
WALNUT HILL*   NOT AVBL
JAY*           NOT AVBL
DUKE FIELD     CLOUDY    70  65  83 CALM      30.00F
CRESTVIEW      CLOUDY    70  66  87 CALM      30.02F
6HR MIN TEMP:  70; 6HR MAX TEMP:  78;

VALPARAISO     PTCLDY    76  66  71 N2        29.99F
6HR MIN TEMP:  76; 6HR MAX TEMP:  79;

DESTIN         CLOUDY    79  68  69 SE3       29.99F
6HR MIN TEMP:  79; 6HR MAX TEMP:  81;


$$

MSZ076-079-280700-
INTERIOR SOUTHEAST MISSISSIPPI

CITY           SKY/WX    TMP DP  RH WIND       PRES   REMARKS
LEAKESVILLE*   NOT AVBL
AGRICOLA*      NOT AVBL

$$

MARINE OBSERVATIONS

STATION/POSITION TIME  TEMP    WIND        PRES    WAVE
                       AIR SEA DIR/SP/G            HT/PER
                 (UTC) (F)     (DEG/KT/KT) (MB)    (FT/S)
PASCAGOULA       0500   79     150/ 11/ 14 1015.6S
PETIT BOIS ISLND 0500   78     150/ 12/ 14 1016.4S
GRAND BAY        0400   79     160/ 14     1017.0S
KATRINA CUT      0500   78     170/ 12     1016.6S
CEDAR POINT      0500   78     180/ 12     1015.9S
E DAUPHIN ISLAND 0600   79     180/  7/  9 1015.7R
MIDDLE BAY LIGHT 0500   79     170/ 11     1016.6R
USCG MOBILE BAY  0500   77 81  200/  2/  6 1016.6F
STATE DOCKS      0500   78 80              1016.0F
MEAHER PARK      0500   76     130/  3     1015.6S
WEEKS BAY        0400   72                   N/A
FORT MORGAN      0500   79     180/ 12/ 14 1015.3F
12 S ORANGE BCH  0550   79 80  170/ 10/ 10 1014.9F   3/ 6
PENSACOLA BAY    0500      81  170/  4/  5 1016.2S
64 S DAUPHIN ISL 0500   78 79  120/ 12/ 14 1015.5S

$$

SELECTED LOCATIONS ACROSS THE REGION

CITY           SKY/WX    TMP DP  RH WIND       PRES   REMARKS
NEW ORLEANS    PTCLDY    76  70  82 SE7       29.97F
GULFPORT       CLOUDY    79  68  69 S5        29.99F
PASCAGOULA AP  CLOUDY    75  69  81 SE3       29.99F
PASCAGOULA*    NOT AVBL
HATTIESBURG    CLEAR     73  68  84 SE3       29.99F
LAUREL         CLEAR     70  54  56 CALM      30.00F
MERIDIAN       CLOUDY    72  65  78 S3        29.99F
JACKSON        CLOUDY    72  65  78 SE9       29.95F
MONTGOMERY     CLOUDY    75  64  68 CALM      30.02F
TROY           CLOUDY    70  66  87 CALM      30.03F
KINSTON*       NOT AVBL
GENEVA*        NOT AVBL
ASHFORD*       NOT AVBL
DOTHAN         PTCLDY    71  63  75 CALM      30.05F
PANAMA CITY    MOCLDY    69  66  90 CALM      30.00S

$$





USA.gov is the U.S. government's official web portal to all federal, state and local government web resources and services.